Temp
5 5 5 4 4 4 4 4 4 4 4 4 4 3 3 3 3 3 3 3 2 2 2 2 2 2 2 2 2 2 2 2 1 2 3 2 1 2 3 3 3 3 3
4 4 4 4 4 4 4 4 3 3 3 3 3 3 3 2 2 1 1 2 2 2 2 2 2 2 2 2 2 2 2 1 1 1 1 1 2 1 2 2 3 3 3
4 4 4 3 3 3 3 3 2 2 2 2 2 2 2 2 2 2 1 1 1 2 2 1 2 2 1 2 1 1 2 2 1 1 1 2 1 1 1 1 2 2 3
4 3 3 3 3 2 2 1 1 1 2 1 1 1 1 1 1 2 1 1 2 1 1 2 1 1 1 1 1 1 1 1 1 1 2 2 1 0 1 0 0 2 2
4 4 3 3 2 2 1 1 1 1 2 1 1 1 1 1 1 1 -0 1 1 1 1 1 1 1 1 1 1 1 1 1 1 2 1 2 2 0 1 0 0 0 1
3 4 3 2 2 2 1 1 1 2 2 2 1 1 1 1 2 1 1 0 1 0 1 1 1 1 1 1 1 1 1 1 0 -0 0 -0 1 1 1 1 1 0 0
3 2 2 2 1 1 1 1 1 1 1 2 2 1 0 1 1 -0 0 0 0 -1 -1 -0 -0 0 -0 -0 1 1 1 1 0 0 0 -0 0 0 1 1 2 0 1
2 2 1 1 1 1 1 1 1 1 1 1 1 1 0 -0 -1 -0 -0 -1 -0 -0 -0 -1 -1 -1 -0 -1 0 2 2 1 1 0 0 0 0 0 0 0 1 1 1
1 1 1 1 1 1 1 1 1 1 0 0 1 1 1 -0 -0 -1 -1 -1 -1 -1 -1 -1 -1 -1 -1 -1 -1 0 0 -0 0 1 0 0 0 0 0 -0 1 1 1
1 1 0 0 0 -0 0 0 0 0 -0 -0 -0 -0 -0 -1 -1 0 -1 -1 -1 -1 -1 -1 -1 -1 -1 -1 -1 0 -1 -1 -0 -0 0 0 0 0 1 0 -0 0 1
1 1 0 -0 -0 -1 -0 -0 -1 -1 -1 -1 -1 -1 -1 -1 -1 -1 -0 -1 -1 -2 -2 -2 -1 -2 -2 -2 -2 -2 -1 -0 0 0 0 -0 -0 0 1 1 0 0 0
1 0 -0 -0 -1 -1 -1 -1 -1 -1 -1 -1 -1 -1 -1 -1 -1 -1 -1 -1 -1 -2 -2 -2 -2 -2 -1 -2 -2 -2 -2 -2 -1 -1 0 0 -0 -1 0 1 1 0 0
0 0 -0 -1 -1 -1 -1 -1 -2 -1 -2 -2 -2 -2 -2 -2 -2 -2 -2 -2 -2 -2 -2 -4 -3 -3 -3 -2 -2 -1 -1 -1 -2 -2 -2 -1 -0 0 -1 -0 1 1 0
-0 -1 -1 -1 -1 -2 -2 -2 -2 -2 -2 -2 -2 -3 -3 -3 -3 -3 -3 -3 -2 -2 -2 -3 -4 -4 -4 -4 -4 -3 -3 -3 -3 -2 -2 -2 -2 -1 -1 -1 -1 0 1
-0 -1 -1 -2 -2 -2 -2 -2 -2 -2 -3 -3 -3 -3 -4 -4 -4 -4 -4 -4 -4 -3 -3 -4 -3 -4 -5 -6 -6 -5 -5 -5 -5 -5 -5 -5 -4 -4 -3 -2 -1 -1 -1
-1 -1 -2 -2 -2 -3 -3 -3 -3 -3 -3 -3 -4 -4 -4 -4 -4 -5 -5 -5 -5 -6 -4 -5 -5 -5 -6 -5 -6 -6 -7 -7 -7 -7 -7 -7 -7 -7 -7 -6 -4 -3 -3
-1 -2 -2 -2 -3 -3 -3 -3 -4 -4 -4 -4 -4 -5 -5 -5 -5 -5 -6 -6 -6 -7 -6 -6 -6 -7 -7 -8 -8 -8 -8 -8 -8 -9 -9 -10 -10 -10 -10 -10 -10 -8 -6
-2 -2 -2 -3 -3 -3 -3 -4 -4 -4 -5 -5 -5 -5 -6 -6 -6 -6 -6 -7 -7 -7 -8 -7 -7 -8 -9 -9 -9 -10 -10 -10 -10 -10 -11 -11 -11 -12 -13 -13 -12 -12 -11
-2 -3 -3 -3 -4 -4 -4 -4 -5 -5 -5 -6 -6 -6 -6 -6 -7 -7 -7 -7 -8 -8 -9 -9 -9 -10 -10 -10 -10 -11 -11 -11 -11 -12 -13 -13 -13 -13 -13 -13 -13 -13 -13
-2 -3 -3 -4 -4 -4 -4 -5 -5 -5 -6 -6 -6 -7 -7 -7 -7 -7 -7 -9 -9 -10 -10 -11 -11 -11 -11 -12 -12 -12 -12 -13 -13 -14 -14 -14 -14 -14 -14 -13 -13 -14 -14
-3 -3 -4 -4 -4 -5 -5 -5 -5 -6 -6 -7 -7 -7 -8 -8 -8 -8 -8 -9 -9 -10 -11 -12 -12 -12 -12 -12 -13 -13 -13 -13 -13 -14 -14 -14 -14 -14 -14 -14 -14 -15 -15
-3 -4 -4 -4 -5 -5 -5 -6 -6 -7 -7 -7 -7 -8 -8 -8 -8 -8 -9 -9 -10 -11 -12 -13 -13 -13 -13 -14 -14 -14 -14 -14 -14 -14 -15 -14 -15 -15 -15 -15 -15 -16 -16
-4 -4 -4 -5 -5 -5 -6 -6 -7 -7 -7 -8 -8 -8 -8 -9 -9 -9 -10 -10 -11 -13 -14 -14 -14 -14 -14 -15 -15 -15 -15 -16 -16 -15 -15 -15 -15 -15 -15 -16 -16 -17 -18
-4 -5 -5 -5 -5 -6 -6 -7 -7 -7 -8 -8 -9 -9 -9 -10 -10 -10 -10 -11 -11 -13 -14 -14 -15 -15 -15 -15 -16 -16 -17 -17 -17 -16 -16 -16 -16 -16 -16 -16 -17 -18 -18
-4 -5 -5 -5 -6 -6 -7 -7 -8 -8 -9 -9 -9 -10 -10 -10 -11 -11 -11 -11 -11 -13 -13 -14 -15 -15 -16 -16 -17 -17 -18 -18 -17 -16 -16 -17 -16 -16 -16 -16 -17 -18 -18
-5 -5 -5 -6 -6 -7 -7 -8 -8 -9 -9 -9 -10 -10 -11 -11 -11 -12 -12 -12 -12 -13 -13 -14 -15 -16 -16 -17 -17 -18 -18 -19 -18 -17 -16 -17 -17 -17 -16 -16 -16 -17 -17
Height
3183 3182 3180 3178 3177 3175 3172 3169 3166 3164 3163 3161 3160 3159 3157 3155 3154 3149 3151 3150 3148 3147 3146 3145 3144 3144 3145 3145 3146 3145 3145 3143 3144 3147 3149 3153 3158 3161 3164 3167 3171 3175 3178
3181 3179 3177 3175 3173 3170 3168 3166 3164 3162 3160 3158 3156 3154 3153 3152 3149 3147 3145 3144 3144 3143 3141 3141 3139 3139 3139 3138 3139 3139 3139 3139 3139 3141 3143 3144 3149 3152 3157 3161 3165 3169 3173
3177 3175 3173 3171 3169 3167 3164 3162 3160 3157 3155 3154 3152 3150 3148 3146 3146 3143 3142 3138 3136 3137 3136 3135 3134 3133 3133 3132 3133 3132 3133 3133 3134 3133 3135 3136 3139 3139 3147 3152 3156 3161 3166
3173 3170 3168 3165 3163 3161 3159 3157 3155 3152 3151 3149 3147 3146 3146 3143 3142 3140 3138 3134 3133 3131 3129 3132 3129 3129 3127 3126 3127 3127 3128 3127 3129 3129 3130 3131 3132 3132 3136 3143 3147 3152 3156
3170 3169 3164 3161 3160 3158 3155 3153 3151 3149 3148 3147 3145 3143 3141 3139 3135 3136 3133 3129 3128 3128 3126 3125 3124 3123 3122 3122 3122 3119 3121 3120 3120 3122 3122 3125 3127 3129 3130 3132 3138 3144 3148
3166 3163 3162 3158 3156 3154 3152 3150 3148 3145 3144 3144 3141 3138 3136 3133 3130 3131 3128 3121 3124 3121 3121 3119 3117 3115 3117 3117 3114 3114 3113 3115 3115 3116 3118 3119 3121 3124 3128 3129 3134 3134 3140
3164 3160 3158 3155 3152 3151 3149 3147 3145 3143 3140 3138 3137 3134 3130 3127 3125 3125 3123 3121 3120 3118 3114 3115 3112 3111 3109 3107 3105 3107 3108 3109 3110 3110 3111 3113 3115 3118 3121 3125 3126 3128 3131
3161 3159 3156 3154 3151 3149 3147 3144 3142 3139 3135 3132 3131 3130 3128 3125 3122 3119 3117 3117 3114 3113 3110 3108 3107 3105 3103 3100 3098 3097 3099 3103 3103 3103 3103 3105 3108 3110 3113 3117 3119 3121 3124
3159 3156 3154 3152 3150 3147 3144 3141 3138 3136 3133 3129 3126 3124 3122 3120 3120 3116 3114 3111 3110 3107 3105 3102 3100 3098 3097 3095 3093 3088 3092 3094 3094 3093 3094 3097 3099 3102 3104 3107 3110 3113 3115
3156 3154 3152 3149 3146 3144 3141 3138 3134 3131 3129 3127 3125 3121 3116 3111 3107 3110 3109 3105 3103 3101 3099 3097 3094 3091 3089 3088 3087 3081 3085 3085 3084 3084 3086 3087 3089 3091 3094 3096 3100 3104 3107
3154 3152 3148 3146 3143 3141 3138 3134 3130 3127 3125 3123 3120 3118 3115 3110 3105 3101 3099 3098 3096 3093 3091 3090 3088 3087 3084 3082 3079 3077 3075 3073 3074 3077 3076 3077 3078 3080 3082 3085 3088 3091 3095
3152 3148 3145 3142 3140 3137 3134 3131 3128 3125 3121 3119 3116 3112 3109 3106 3101 3096 3092 3089 3087 3085 3082 3081 3078 3077 3076 3075 3073 3071 3071 3069 3065 3063 3066 3067 3068 3069 3070 3072 3075 3078 3082
3147 3144 3141 3139 3136 3133 3130 3127 3124 3121 3118 3115 3111 3107 3103 3099 3095 3091 3086 3082 3079 3079 3075 3072 3069 3068 3066 3064 3061 3058 3059 3058 3058 3056 3054 3055 3056 3057 3058 3059 3061 3064 3067
3144 3140 3137 3135 3132 3129 3126 3123 3120 3117 3113 3110 3106 3102 3098 3094 3090 3086 3081 3075 3071 3069 3069 3066 3062 3059 3056 3053 3050 3047 3046 3044 3043 3042 3041 3041 3041 3043 3044 3045 3047 3049 3052
3140 3137 3134 3131 3128 3125 3122 3118 3115 3112 3108 3105 3101 3097 3093 3089 3084 3080 3076 3071 3064 3058 3057 3058 3055 3054 3048 3044 3041 3037 3035 3033 3031 3028 3025 3024 3024 3025 3027 3029 3030 3032 3033
3135 3132 3130 3127 3124 3120 3117 3114 3110 3107 3104 3100 3096 3092 3087 3083 3079 3074 3069 3064 3059 3053 3047 3048 3045 3042 3041 3038 3034 3029 3025 3021 3018 3015 3012 3009 3007 3005 3006 3008 3010 3013 3015
3131 3128 3125 3122 3119 3116 3112 3109 3105 3102 3099 3095 3091 3087 3082 3076 3072 3067 3062 3058 3053 3047 3041 3039 3036 3033 3030 3025 3022 3020 3016 3012 3008 3004 3001 2997 2994 2991 2990 2989 2990 2991 2993
3127 3123 3120 3117 3114 3110 3107 3103 3100 3097 3093 3089 3084 3080 3074 3070 3065 3060 3056 3050 3045 3041 3034 3028 3026 3023 3019 3017 3011 3007 3003 3001 2997 2994 2990 2986 2983 2980 2977 2974 2974 2973 2973
3121 3118 3115 3112 3109 3105 3101 3097 3094 3090 3086 3082 3077 3072 3067 3062 3058 3053 3049 3043 3037 3032 3027 3020 3016 3014 3010 3007 3002 2998 2994 2990 2985 2982 2978 2974 2970 2968 2964 2961 2958 2954 2953
3114 3112 3109 3106 3103 3099 3096 3091 3087 3083 3079 3075 3070 3065 3060 3054 3050 3046 3041 3035 3029 3023 3018 3013 3008 3002 2999 2996 2990 2982 2977 2977 2972 2972 2968 2962 2958 2954 2950 2946 2943 2938 2933
3108 3105 3102 3099 3096 3093 3090 3084 3080 3076 3072 3068 3063 3058 3052 3046 3041 3038 3033 3028 3021 3014 3008 3002 2997 2992 2988 2983 2979 2974 2967 2963 2961 2962 2954 2950 2945 2942 2937 2931 2925 2921 2916
3102 3098 3095 3092 3089 3086 3083 3076 3072 3069 3065 3060 3056 3051 3046 3039 3033 3028 3022 3018 3012 3003 2997 2992 2987 2982 2979 2975 2969 2964 2958 2953 2945 2957 2943 2938 2937 2928 2924 2917 2910 2904 2899
3094 3091 3088 3084 3081 3078 3076 3071 3065 3062 3058 3053 3048 3044 3039 3033 3026 3021 3016 3011 3007 3001 2993 2984 2978 2974 2969 2965 2959 2955 2951 2946 2941 2942 2933 2924 2926 2915 2912 2904 2897 2890 2886
3087 3084 3080 3076 3072 3070 3068 3063 3058 3055 3051 3046 3041 3036 3031 3025 3017 3013 3007 3002 2998 2992 2985 2980 2974 2968 2962 2958 2952 2946 2940 2936 2934 2934 2926 2914 2915 2906 2899 2892 2885 2879 2874
3080 3077 3073 3069 3065 3060 3061 3056 3050 3047 3043 3039 3034 3029 3023 3018 3011 3004 2997 2991 2986 2982 2976 2971 2965 2960 2954 2949 2944 2937 2933 2927 2923 2924 2921 2908 2905 2895 2889 2880 2873 2868 2864
3074 3070 3066 3062 3058 3053 3052 3049 3043 3039 3036 3032 3028 3022 3016 3010 3004 2998 2989 2982 2975 2970 2964 2960 2957 2952 2946 2941 2936 2930 2925 2919 2915 2912 2912 2901 2896 2889 2877 2874 2866 2861 2856
Wind_Speed
20 21 22 22 22 24 25 26 28 28 27 27 25 22 22 21 19 23 23 23 23 23 24 25 26 25 26 26 26 22 24 27 49 45 32 37 36 31 30 29 27 26 24
20 21 22 23 23 22 23 24 25 25 25 23 21 20 19 18 18 17 20 19 19 21 21 22 22 25 27 28 26 24 23 21 22 34 48 38 35 40 35 32 30 29 28
21 21 21 22 24 25 25 23 21 20 18 17 17 18 18 19 16 18 18 21 21 20 19 20 21 22 23 24 24 26 23 21 25 25 31 39 26 38 41 36 33 33 31
20 23 25 26 26 25 23 23 20 20 19 17 17 16 15 17 16 17 19 22 20 21 23 18 21 22 22 23 22 24 23 25 24 26 27 24 32 20 41 40 41 38 36
24 23 26 27 26 24 22 21 20 20 19 19 20 19 18 18 19 17 17 23 23 21 24 23 23 23 23 24 23 25 23 25 27 29 26 24 24 21 18 41 48 46 41
25 27 25 25 24 23 21 20 21 23 23 20 20 19 19 17 22 18 18 23 21 24 24 26 26 28 25 24 27 27 26 24 25 25 27 25 22 21 24 21 24 47 45
23 24 24 23 22 21 21 21 21 23 24 23 21 20 19 22 22 18 21 24 25 20 25 23 26 27 27 28 31 30 28 27 26 26 25 25 27 26 23 24 29 24 37
23 22 22 20 20 21 23 23 22 23 25 25 23 21 17 19 18 22 23 22 24 24 24 23 23 24 26 27 31 32 30 27 28 30 29 28 27 29 29 28 28 34 36
22 22 20 20 20 22 23 22 23 22 23 24 26 24 22 20 15 19 21 23 22 23 23 22 23 23 23 25 26 33 30 28 29 31 33 33 32 31 31 34 34 34 39
24 22 20 20 21 22 22 23 22 23 24 23 24 25 26 27 28 23 19 21 22 22 20 20 22 23 24 24 24 33 27 27 30 30 30 33 35 36 36 36 36 40 41
22 22 21 20 22 22 22 22 23 23 24 25 25 24 24 26 28 29 28 25 22 23 23 22 22 20 21 24 26 29 30 33 31 29 32 33 33 35 40 42 41 41 44
24 24 22 22 23 23 23 23 23 23 25 26 27 27 27 28 29 30 31 30 29 27 26 25 27 26 26 25 26 27 26 29 33 36 35 34 34 36 39 41 45 47 46
26 24 23 23 24 24 24 24 23 24 25 26 28 29 30 30 30 32 33 33 32 28 29 29 30 30 29 31 33 35 33 33 32 33 35 36 37 38 39 43 45 48 52
27 25 24 24 25 25 25 25 25 26 27 28 29 30 31 32 32 33 33 35 35 33 29 29 31 32 34 34 36 38 38 39 40 41 41 40 40 40 42 43 45 49 52
28 25 25 25 25 25 25 26 27 27 28 30 31 32 32 33 34 34 34 34 37 38 36 32 33 31 34 35 38 41 41 41 42 43 44 46 46 44 45 44 46 49 54
30 28 26 25 26 26 27 27 28 28 29 30 31 32 33 34 34 35 35 35 36 38 41 37 36 36 35 36 38 41 42 43 44 45 47 48 49 50 49 49 49 49 52
30 28 26 26 27 27 28 28 29 29 29 30 31 32 33 34 35 35 36 36 36 37 40 38 39 38 38 39 40 40 41 43 43 44 45 46 46 48 50 52 51 52 53
30 28 27 28 28 28 29 29 29 29 29 30 32 33 34 34 35 35 36 36 37 37 40 42 41 41 41 38 42 42 41 40 42 42 43 46 47 47 48 52 51 50 49
32 29 28 28 28 29 30 30 31 30 30 31 32 34 35 35 35 36 36 37 37 37 38 42 43 41 42 40 41 41 41 41 41 40 41 43 45 45 49 52 50 50 51
33 30 29 29 29 29 30 31 32 32 31 32 33 35 36 37 36 37 37 37 37 38 38 41 42 43 42 41 41 44 44 40 41 38 39 43 44 45 50 51 49 50 50
33 31 30 30 29 30 30 32 33 32 32 32 33 35 37 38 39 38 38 37 38 38 39 41 43 44 43 43 43 43 45 45 43 38 43 45 43 45 48 51 51 48 47
34 31 31 31 30 30 30 33 34 33 33 33 34 35 36 38 40 41 41 41 40 41 42 43 45 45 44 43 43 44 44 46 49 35 43 47 44 47 49 50 48 46 44
34 32 32 32 32 32 30 32 34 34 33 33 34 35 36 37 40 40 40 41 38 36 38 42 44 44 45 43 45 44 43 43 45 39 45 50 46 48 50 48 46 41 39
34 33 32 32 34 33 32 33 35 34 33 33 34 35 36 37 41 41 42 42 39 37 37 37 39 40 41 42 42 42 44 44 42 38 41 48 45 46 48 44 41 36 37
34 33 33 33 34 36 32 33 35 35 33 33 33 35 36 37 39 42 44 44 42 39 38 37 37 38 38 39 39 40 39 42 42 36 36 43 40 42 44 43 36 31 30
33 33 34 34 35 36 34 32 34 36 33 32 32 34 35 37 38 41 44 44 44 42 40 38 35 34 35 36 36 36 37 40 39 38 34 37 35 40 46 40 28 27 24
Wind_Direction
313 315 315 316 314 312 311 312 311 309 309 311 312 312 311 307 300 292 291 290 288 287 284 280 276 274 271 270 273 279 285 262 235 252 255 254 227 228 227 227 228 228 225
315 315 317 317 315 314 312 312 308 309 309 311 312 311 309 306 306 297 296 290 288 288 285 280 277 275 273 272 273 274 266 280 262 259 250 257 266 224 226 227 228 227 225
317 319 320 319 319 321 320 318 319 318 319 317 315 314 316 314 314 305 309 301 300 293 290 291 288 285 282 278 276 271 270 271 270 266 268 255 275 237 218 221 226 227 226
325 326 325 324 324 327 329 329 330 327 327 324 321 318 312 305 306 304 302 298 294 297 295 291 290 289 286 285 283 276 268 262 260 260 261 268 263 277 234 218 223 223 223
323 323 323 323 325 324 325 329 330 326 327 322 319 315 308 305 299 300 291 288 292 293 291 295 290 288 283 286 284 280 277 271 264 265 271 272 270 271 247 224 217 224 219
328 327 326 323 324 325 328 328 326 323 323 321 321 321 316 303 304 314 298 284 295 293 294 290 290 286 290 284 279 279 279 278 278 270 267 269 268 270 255 258 245 234 225
329 328 328 326 325 325 325 325 326 325 324 324 325 326 316 311 311 307 303 295 303 293 294 294 290 292 288 286 280 278 276 277 278 276 272 266 260 254 250 249 245 232 246
330 329 327 325 324 324 322 324 326 328 326 325 325 321 318 309 311 304 303 307 295 299 295 295 292 290 289 286 287 284 279 276 271 271 271 267 262 256 248 240 237 236 244
333 332 328 324 325 323 320 321 325 328 329 329 325 323 320 314 307 300 301 298 301 294 297 296 294 292 289 287 287 285 289 288 276 269 267 265 263 259 256 246 239 238 239
334 328 324 322 323 322 320 324 330 332 332 331 328 327 326 322 320 313 305 301 302 303 301 299 298 296 295 291 289 285 291 283 284 282 275 270 265 260 256 254 248 241 242
328 324 321 321 323 321 321 326 331 333 331 331 330 329 325 322 320 318 316 311 310 309 308 307 299 297 294 292 293 294 295 294 287 279 278 277 272 266 260 256 252 249 244
330 324 321 321 321 320 322 325 328 331 330 330 330 329 327 325 323 320 318 317 316 317 315 315 309 308 304 301 294 290 289 288 289 290 285 278 275 272 268 261 256 251 248
327 322 317 317 318 318 319 321 325 327 327 328 329 329 328 327 326 323 321 318 316 316 316 318 314 312 309 307 305 302 300 297 293 292 292 289 283 276 270 267 262 256 252
322 316 313 314 316 317 317 318 321 323 325 327 328 329 328 327 326 324 322 319 316 315 314 314 313 314 312 312 310 307 307 306 304 302 298 293 288 282 276 270 264 259 255
320 313 309 311 313 314 313 314 317 320 323 325 326 326 326 325 325 325 323 320 318 316 316 318 312 312 312 312 310 308 309 308 307 307 305 303 301 296 287 278 269 262 256
318 314 308 308 311 313 314 314 315 318 319 321 322 324 324 324 325 325 324 322 320 317 316 318 315 315 311 308 307 308 310 310 310 310 309 309 306 302 298 292 282 269 258
316 310 306 307 310 313 314 315 314 314 315 318 320 322 323 323 324 325 324 323 319 317 315 317 315 315 313 312 309 308 308 308 310 310 310 309 305 302 299 295 292 286 272
316 309 306 307 309 313 314 314 312 312 313 316 319 322 323 323 324 325 325 322 320 318 316 316 317 315 313 313 310 310 309 310 309 310 310 306 303 302 301 300 298 290 281
316 309 305 305 309 312 314 313 312 311 313 316 319 322 323 323 324 325 325 323 321 319 317 314 314 314 312 312 307 306 307 312 312 314 312 308 304 302 300 302 299 294 285
315 310 306 306 309 312 314 312 312 312 314 316 319 321 322 322 323 325 326 325 320 319 316 314 313 312 314 313 312 313 311 311 310 314 314 308 307 303 304 304 299 292 285
314 310 306 306 308 310 313 311 312 313 314 315 318 321 322 322 322 324 326 325 322 320 318 315 315 315 317 314 312 310 309 309 308 315 312 313 313 309 308 307 304 295 283
312 308 306 307 308 309 313 312 313 315 314 316 317 319 321 321 321 325 327 325 326 323 321 317 315 315 315 313 310 309 308 306 307 313 308 312 316 308 312 311 304 293 282
310 308 307 309 309 310 312 312 312 314 314 315 316 318 321 321 319 323 324 323 322 318 314 313 313 314 312 311 307 306 304 303 304 309 306 309 317 309 313 311 306 295 286
309 308 310 311 310 311 313 313 312 313 314 314 315 318 319 320 320 323 322 322 321 319 313 310 308 308 306 304 303 303 302 299 300 304 307 310 314 310 314 311 305 291 286
310 310 311 311 310 310 312 313 312 313 313 314 315 316 318 320 321 322 323 321 320 318 314 312 309 306 303 301 300 298 296 295 296 302 308 310 311 311 319 320 308 287 283
311 311 312 312 311 310 311 314 311 309 312 313 313 314 317 320 321 322 321 321 319 318 317 314 309 304 300 298 297 293 293 294 299 301 311 309 308 317 316 326 314 290 270